This demonstration page uses our WeatherBlox Daily Observations layout. Learn more.

Left ArrowRight Arrow

39.01783, -85.05884

Hourly Observations for October 5, 2016

Temp ( °F °C ) Dew Point ( °F °C ) Humidity (%) Winds ( mph kmh ) Pressure ( in mb ) Visibility ( mi km ) Precip ( " mm )
12:52 am 00:52 Mostly Cloudy 66 19 61 16 83 83 SE 8 13 30.03 1017 10 16 0.00 0.00
1:52 am 01:52 Partly Cloudy 67 19.4 60 15.6 79 79 SE 10 17 30.05 1018 10 16 0.00 0.00
2:52 am 02:52 Mostly Cloudy 66 18.9 60 15.6 81 81 SE 9 15 30.06 1018 10 16 0.00 0.00
3:52 am 03:52 Mostly Clear 66 18.9 59 15 78 78 SSE 9 15 30.06 1018 10 16 0.00 0.00
4:52 am 04:52 Clear 65 18.3 59 15 81 81 SSE 10 17 30.07 1018 10 16 0.00 0.00
5:52 am 05:52 Partly Cloudy 64 17.8 58 14.4 81 81 SSE 9 15 30.08 1019 10 16 0.00 0.00
6:52 am 06:52 Mostly Clear 62 16.7 58 14.4 86 86 SSE 7 11 30.10 1019 10 16 0.00 0.00
7:52 am 07:52 Mostly Cloudy 63 17.2 58 14.4 84 84 SSE 7 11 30.12 1020 10 16 0.00 0.00
8:52 am 08:52 Mostly Cloudy 64 17.8 58 14.4 81 81 SSE 9 15 30.14 1021 10 16 0.00 0.00
9:52 am 09:52 Partly Cloudy 68 20 60 15.6 76 76 SSE 8 13 30.14 1021 10 16 0.00 0.00
10:52 am 10:52 Mostly Cloudy 70 21.1 59 15 68 68 S 12 19 30.14 1021 10 16 0.00 0.00
11:52 am 11:52 Mostly Cloudy 74 23.3 61 16.1 64 64 S 8 13 30.13 1020 10 16 0.00 0.00
12:52 pm 12:52 Mostly Cloudy 76 24.4 61 16.1 60 60 S 7 11 30.12 1020 10 16 0.00 0.00
1:52 pm 13:52 Mostly Cloudy 77 25 61 16.1 58 58 SSW 7 11 30.11 1020 10 16 0.00 0.00
2:52 pm 14:52 Mostly Cloudy 77 25 60 15.6 56 56 SW 3 6 30.09 1019 10 16 0.00 0.00
3:52 pm 15:52 Partly Cloudy 79 26.1 61 16.1 54 54 SSW 7 11 30.06 1018 10 16 0.00 0.00
4:52 pm 16:52 Partly Cloudy 80 26.7 62 16.7 54 54 SSW 10 17 30.05 1018 10 16 0.00 0.00
5:52 pm 17:52 Partly Cloudy 79 26.1 61 16.1 54 54 SW 5 7 30.05 1018 10 16 0.00 0.00
6:52 pm 18:52 Partly Cloudy 75 23.9 62 16.7 64 64 Calm 30.06 1018 10 16 0.00 0.00
7:52 pm 19:52 Partly Cloudy 71 21.7 62 16.7 73 73 S 6 9 30.08 1019 10 16 0.00 0.00
8:52 pm 20:52 Cloudy 72 22.2 61 16.1 68 68 S 6 9 30.08 1019 10 16 0.00 0.00
9:52 pm 21:52 Cloudy 72 22.2 61 16.1 68 68 S 6 9 30.09 1019 10 16 0.00 0.00
10:52 pm 22:52 Mostly Cloudy 70 21.1 61 16.1 73 73 S 6 9 30.10 1019 10 16 0.00 0.03
11:52 pm 23:52 Partly Cloudy 69 20.6 59 15 70 70 SSE 6 9 30.11 1020 10 16 0.00 0.00

Powered by AerisWeather